Plattsmouth, NE

1:43 AM CDT on September 20, 2017 (GMT -0500)
Plattsmouth Municipal

Weather History for KPMV - November, 2012

Change the Weather History Date:

Saturday, November 10, 2012

  Actual Average (KOFF) Record (KOFF)
Temperature  
Mean Temperature 67 °F -  
Max Temperature 76 °F 50 °F 76 °F (2012)
Min Temperature 54 °F 31 °F 21 °F (1997)
Cooling Degree Days 2    
Growing Degree Days 17 (Base 50)    
Moisture  
Dew Point 56 °F    
Average Humidity 68    
Maximum Humidity 94    
Minimum Humidity 47    
Precipitation  
Precipitation 0.30 in - - ()
Sea Level Pressure  
Sea Level Pressure 29.59 in    
Wind  
Wind Speed 19 mph (South)    
Max Wind Speed 29 mph    
Max Gust Speed 41 mph    
Visibility 10 miles    
Events Rain , Thunderstorm    
Averages and records for this station are not official NWS values.
T = Trace of Precipitation, MM = Missing Value Source: NWS Daily Summary

Daily Weather History Graph

Daily Weather History Graph

Search for Another Location

Airport or City:

Trip Planner

Search our weather history database for the weather conditions in past years. The results will help you decide how hot, cold, wet, or windy it might be!

Date:

Astronomy

Nov. 10, 2012 Rise Set
Actual Time 7:05 AM CST 5:09 PM CST
Civil Twilight 6:36 AM CST 5:38 PM CST
Nautical Twilight 6:03 AM CST 6:11 PM CST
Astronomical Twilight 5:31 AM CST 6:43 PM CST
Moon 3:10 AM CST (11/10) 2:57 PM CST (11/10)
Length of Visible Light 11h 01m
Length of Day
10h 03m
Waning Crescent, 14% of the Moon is Illuminated
Nov 10
Waning Crescent
Nov 13
New
Nov 20
First Quarter
Nov 28
Full
Dec 6
Last Quarter

Hourly Weather History & Observations

Time (CST) Temp. Dew Point Humidity Pressure Visibility Wind Dir Wind Speed Gust Speed Precip Events Conditions
12:15 AM 61.7 °F 57.4 °F 86% 29.65 in 10.0 mi SSE 15.0 mph - N/A   Clear
12:35 AM 60.8 °F 57.2 °F 88% 29.65 in 10.0 mi SE 12.7 mph - N/A   Clear
12:55 AM 60.4 °F 57.2 °F 89% 29.64 in 10.0 mi SSE 11.5 mph - N/A   Clear
1:15 AM 60.8 °F 57.2 °F 88% 29.63 in 10.0 mi SSE 13.8 mph - N/A   Clear
1:35 AM 61.5 °F 57.6 °F 87% 29.63 in 10.0 mi SSE 12.7 mph - N/A   Clear
1:55 AM 61.5 °F 57.4 °F 86% 29.63 in 10.0 mi SSE 12.7 mph - N/A   Clear
2:15 AM 61.9 °F 57.2 °F 85% 29.62 in 10.0 mi SSE 13.8 mph - N/A   Clear
2:55 AM 62.8 °F 57.2 °F 82% 29.61 in 10.0 mi SSE 13.8 mph - N/A   Clear
3:15 AM 63.1 °F 56.7 °F 79% 29.61 in 10.0 mi SSE 15.0 mph - N/A   Clear
3:35 AM 63.5 °F 56.5 °F 78% 29.60 in 10.0 mi SSE 17.3 mph 23.0 mph N/A   Clear
3:55 AM 63.1 °F 56.3 °F 78% 29.60 in 10.0 mi South 18.4 mph 23.0 mph N/A   Clear
4:15 AM 63.1 °F 55.9 °F 77% 29.59 in 10.0 mi SSE 18.4 mph 23.0 mph N/A   Clear
4:35 AM 63.1 °F 55.8 °F 77% 29.59 in 10.0 mi South 19.6 mph 26.5 mph N/A   Clear
4:55 AM 63.1 °F 55.4 °F 76% 29.59 in 10.0 mi South 18.4 mph 25.3 mph N/A   Clear
5:15 AM 63.0 °F 55.4 °F 76% 29.60 in 10.0 mi South 20.7 mph 27.6 mph N/A   Clear
5:35 AM 63.3 °F 55.0 °F 74% 29.60 in 10.0 mi South 21.9 mph 27.6 mph N/A   Clear
6:15 AM 62.6 °F 54.7 °F 75% 29.60 in 10.0 mi South 19.6 mph 26.5 mph N/A   Clear
6:35 AM 62.2 °F 54.7 °F 76% 29.60 in 10.0 mi South 19.6 mph - N/A   Clear
6:55 AM 62.1 °F 54.5 °F 76% 29.61 in 10.0 mi South 19.6 mph - N/A   Clear
7:15 AM 61.9 °F 54.5 °F 77% 29.62 in 10.0 mi South 18.4 mph 26.5 mph N/A   Clear
7:35 AM 61.9 °F 54.5 °F 77% 29.62 in 10.0 mi South 18.4 mph 25.3 mph N/A   Clear
7:55 AM 62.2 °F 54.7 °F 76% 29.62 in 10.0 mi South 20.7 mph 26.5 mph N/A   Clear
8:15 AM 63.7 °F 54.5 °F 72% 29.63 in 10.0 mi South 24.2 mph 29.9 mph N/A   Clear
8:35 AM 64.8 °F 54.9 °F 70% 29.63 in 10.0 mi South 21.9 mph 27.6 mph N/A   Clear
8:55 AM 66.4 °F 54.9 °F 66% 29.63 in 10.0 mi South 23.0 mph 31.1 mph N/A   Clear
9:15 AM 67.3 °F 55.2 °F 65% 29.63 in 10.0 mi South 23.0 mph 32.2 mph N/A   Clear
9:35 AM 68.7 °F 54.9 °F 61% 29.64 in 10.0 mi South 23.0 mph 32.2 mph N/A   Clear
9:55 AM 69.8 °F 54.7 °F 59% 29.63 in 10.0 mi South 25.3 mph 32.2 mph N/A   Clear
10:15 AM 71.1 °F 54.7 °F 56% 29.63 in 10.0 mi South 27.6 mph 33.4 mph N/A   Clear
10:35 AM 72.3 °F 54.7 °F 54% 29.63 in 10.0 mi South 26.5 mph 33.4 mph N/A   Clear
10:55 AM 73.4 °F 54.7 °F 52% 29.62 in 10.0 mi South 25.3 mph 33.4 mph N/A   Clear
11:15 AM 74.3 °F 54.7 °F 50% 29.62 in 10.0 mi South 19.6 mph 33.4 mph N/A   Clear
11:35 AM 72.9 °F 54.5 °F 52% 29.61 in 10.0 mi South 21.9 mph 28.8 mph N/A   Clear
11:55 AM 71.6 °F 55.4 °F 57% 29.60 in 10.0 mi South 20.7 mph 28.8 mph N/A   Clear
12:15 PM 72.9 °F 56.1 °F 56% 29.59 in 10.0 mi SSE 19.6 mph 25.3 mph N/A   Scattered Clouds
12:35 PM 75.2 °F 55.8 °F 51% 29.58 in 10.0 mi SSE 23.0 mph 33.4 mph N/A   Scattered Clouds
12:55 PM 73.6 °F 55.8 °F 54% 29.57 in 10.0 mi South 26.5 mph 34.5 mph N/A   Clear
1:15 PM 74.7 °F 55.6 °F 51% 29.57 in 10.0 mi South 25.3 mph 38.0 mph N/A   Clear
1:35 PM 73.8 °F 55.8 °F 53% 29.57 in 10.0 mi South 27.6 mph 36.8 mph N/A   Scattered Clouds
1:55 PM 73.6 °F 55.6 °F 53% 29.56 in 10.0 mi South 28.8 mph 35.7 mph N/A   Clear
2:15 PM 74.8 °F 55.4 °F 51% 29.54 in 10.0 mi South 21.9 mph 35.7 mph N/A   Scattered Clouds
2:35 PM 75.7 °F 55.4 °F 49% 29.54 in 10.0 mi SSE 24.2 mph 35.7 mph N/A   Scattered Clouds
2:55 PM 76.6 °F 55.0 °F 47% 29.54 in 10.0 mi South 28.8 mph 39.1 mph N/A   Mostly Cloudy
3:15 PM 75.2 °F 55.4 °F 50% 29.54 in 10.0 mi South 23.0 mph 35.7 mph N/A   Mostly Cloudy
3:35 PM 75.0 °F 55.6 °F 51% 29.54 in 10.0 mi South 24.2 mph 33.4 mph N/A   Scattered Clouds
3:55 PM 74.1 °F 55.8 °F 53% 29.54 in 10.0 mi SSE 25.3 mph 35.7 mph N/A   Mostly Cloudy
4:15 PM 73.6 °F 56.1 °F 54% 29.55 in 10.0 mi South 23.0 mph 32.2 mph N/A   Mostly Cloudy
4:35 PM 72.5 °F 56.3 °F 57% 29.55 in 10.0 mi SSE 23.0 mph 35.7 mph N/A   Overcast
4:55 PM 70.9 °F 56.3 °F 60% 29.55 in 10.0 mi South 28.8 mph 39.1 mph N/A   Scattered Clouds
5:15 PM 70.2 °F 55.9 °F 61% 29.56 in 10.0 mi SSE 27.6 mph 41.4 mph N/A   Scattered Clouds
5:35 PM 69.3 °F 55.9 °F 62% 29.56 in 10.0 mi South 26.5 mph 34.5 mph N/A   Scattered Clouds
5:55 PM 68.7 °F 55.8 °F 63% 29.56 in 10.0 mi South 20.7 mph 28.8 mph N/A   Clear
6:15 PM 68.4 °F 55.6 °F 64% 29.55 in 10.0 mi SSE 20.7 mph 31.1 mph N/A   Clear
6:35 PM 68.5 °F 55.6 °F 63% 29.54 in 10.0 mi SSE 24.2 mph 31.1 mph N/A   Clear
6:55 PM 68.7 °F 55.4 °F 62% 29.53 in 10.0 mi SSE 23.0 mph 33.4 mph N/A   Clear
7:15 PM 68.0 °F 55.4 °F 64% 29.50 in 10.0 mi SSE 21.9 mph 27.6 mph N/A   Clear
7:35 PM 68.0 °F 55.4 °F 64% 29.51 in 10.0 mi SSE 25.3 mph 36.8 mph N/A   Clear
7:55 PM 68.0 °F 54.9 °F 63% 29.50 in 10.0 mi SSE 26.5 mph 35.7 mph N/A   Clear
8:15 PM 68.2 °F 54.5 °F 62% 29.51 in 10.0 mi SSE 28.8 mph 34.5 mph N/A   Clear
8:35 PM 68.4 °F 54.5 °F 61% 29.52 in 10.0 mi South 25.3 mph 41.4 mph N/A   Clear
8:55 PM 68.9 °F 54.1 °F 59% 29.54 in 10.0 mi South 28.8 mph 39.1 mph N/A   Clear
9:15 PM 67.6 °F 54.9 °F 64% 29.56 in 10.0 mi South 24.2 mph 38.0 mph N/A Thunderstorm Mostly Cloudy
9:35 PM 66.7 °F 56.1 °F 69% 29.59 in 10.0 mi South 27.6 mph 38.0 mph N/A Rain Rain
10:35 PM 59.2 °F 56.5 °F 91% 29.62 in 7.0 mi WSW 11.5 mph - 0.12 in Rain , Thunderstorm Thunderstorms and Rain
10:55 PM 59.0 °F 56.3 °F 91% 29.62 in 7.0 mi SW 11.5 mph - 0.20 in Rain , Thunderstorm Rain
11:15 PM 58.5 °F 56.3 °F 93% 29.60 in 7.0 mi South 6.9 mph - 0.06 in Rain , Thunderstorm Rain
11:35 PM 58.1 °F 56.5 °F 94% 29.64 in 10.0 mi SSW 10.4 mph - 0.07 in Rain Light Rain
11:55 PM 54.7 °F 52.5 °F 92% 29.65 in 7.0 mi WNW 15.0 mph - 0.10 in Rain Rain